Location: Bieg
(49.3499°N, 10.3835°E)
Time: 22:41:11
(UTC+00:00)

Cosmos 2219 Rocket - Pass Details

Date: 23 May 2024
Orbit: 827 x 846 km, 71.0° (Epoch: 14 June)

Event Time Altitude Azimuth Distance (km) Brightness Sun altitude
Rises 01:48:33 0° 332° (NNW) 3,399 5.7 -12.2°
Reaches altitude 10° 01:51:01 10° 335° (NNW) 2,464 5.0 -11.9°
Maximum altitude 01:56:39 68° 59° (ENE) 910 2.6 -11.4°
Drops below altitude 10° 02:02:17 10° 142° (SE) 2,460 4.5 -10.8°
Sets 02:04:44 0° 145° (SE) 3,394 5.2 -10.5°
